Location: Kampernieuwstad
(52.5135°N, 5.8742°E)
Time: 12:31:33
(UTC+00:00)

Cosmos 1461 - Pass Details

Date: 15 May 2026
Orbit: 422 x 476 km, 65.0° (Epoch: 8 June)

Event Time Altitude Azimuth Distance (km) Brightness Sun altitude
Rises 21:20:56 0° 232° (SW) 2,537 6.2 -12.9°
Reaches altitude 10° 21:23:06 10° 237° (WSW) 1,658 5.2 -13.1°
Maximum altitude 21:26:46 58° 317° (NW) 566 3.2 -13.4°
Drops below altitude 10° 21:30:24 10° 37° (NE) 1,649 5.5 -13.7°
Sets 21:32:33 0° 42° (NE) 2,522 6.5 -13.8°
